Regional Weather Roundup
Issued by NWS

Home | Current Version | Previous Version | Graphics & Text | Print | Product List | Glossary On
Versions: 1 2 3 4 5 6 7 8 9 10 11 12 13 14 15 16 17 18 19 20 21 22 23 24 25 26 27 28 29 30 31 32 33 34 35 36 37 38 39 40 41 42 43 44 45 46 47 48 49 50
000
ASUS45 KABQ 151310
RWRNM
NEW MEXICO REGIONAL WEATHER ROUNDUP
NATIONAL WEATHER SERVICE ALBUQUERQUE NM
600 AM MST SUN JAN 15 2017

NOTE: "FAIR" MEANS FEW OR NO CLOUDS BELOW 12,000 FEET AGL WITH NO
       SIGNIFICANT WEATHER OR OBSTRUCTIONS TO VISION.

      THIS PRODUCT IS RELEASED AS TWO VERSIONS.  ONE VERSION NEAR
      THE TOP OF THE HOUR CONTAINING PRELIMINARY DATA FROM ALBUQUERQUE
      AND OTHER STATIONS.  A FINAL VERSION WITH ADDITIONAL DATA IS
      ISSUED ABOUT 10 MINUTES AFTER THE HOUR.

NMZ501-503-504-510>518-151400-
NORTHWEST PLATEAU/NORTHCENTRAL MOUNTAINS

CITY           SKY/WX    TMP DP  RH WIND       PRES   REMARKS
FARMINGTON     FAIR      41  36  82 NE6       29.93F
LOS ALAMOS     SNOW      32  32 100 NE5       30.00F VSB 1/4 WCI  28
SANTA FE       LGT RAIN  36  35  96 N9        29.98F WCI  29
TAOS           CLOUDY    32  25  74 CALM      30.02F
ANGEL FIRE     LGT SNOW  32  32  99 CALM      30.04F

$$
NMZ402-403-502-505>509-151400-
WESTCENTRAL MOUNTAINS/SOUTHWEST MOUNTAINS

CITY           SKY/WX    TMP DP  RH WIND       PRES   REMARKS
GALLUP         CLOUDY    36  35  96 CALM      29.94S
GRANTS         LGT RAIN  35  34  99 CALM      29.96F
SILVER CITY    RAIN      40  39  97 CALM      29.93R

$$
NMZ407-409-411-412-151400-
SOUTHERN DESERTS

CITY           SKY/WX    TMP DP  RH WIND       PRES   REMARKS
DEMING         HVY RAIN  44  42  93 NW15      29.89S FOG
LAS CRUCES     CLOUDY    48  46  93 SW13      29.88R
HOLLOMAN AFB   LGT RAIN  46  46 100 W8        29.89F FOG
ALAMOGORDO     CLOUDY    46  46 100 W7        29.85F FOG
T OR C         HVY RAIN  42  41  96 N6        29.90F FOG

$$
NMZ519>523-151400-
CENTRAL VALLEYS/CENTRAL HIGHLANDS

CITY           SKY/WX    TMP DP  RH WIND       PRES   REMARKS
ALBUQUERQUE    RAIN      40  36  86 NE18      29.93F WCI  31
DOUBLE EAGLE   RAIN      37  36  93 N12       29.96S WCI  30
MORIARTY ARPT  LGT RAIN  33  31  94 N5        30.00F WCI  28
CLINES CORNERS MIX PCPN  31  30  96 NE13      29.97F FOG     WCI  21
BELEN          CLOUDY    40  40 100 N8        29.91F
SOCORRO        HVY RAIN  41  40  95 NW13      29.93R

$$
NMZ524>526-539-540-151400-
SOUTHCENTRAL MOUNTAINS

CITY           SKY/WX    TMP DP  RH WIND       PRES   REMARKS
RUIDOSO        LGT RAIN  32  32 100 S7        29.99F VSB 1/2 WCI  26

$$
NMZ527>531-151400-
NORTHEAST HIGHLANDS/NORTHEAST PLAINS

CITY           SKY/WX    TMP DP  RH WIND       PRES   REMARKS
LAS VEGAS      LGT SNOW  32  31  96 NE7       30.03F VSB 3/4 WCI  26
RATON          CLOUDY    34  32  92 N5        30.04F FOG     WCI  30
CLAYTON        FRZ RAIN  32  32 100 NE10      30.07F VSB 1/2 WCI  24

$$
NMZ532>537-151400-
EASTCENTRAL PLAINS

CITY           SKY/WX    TMP DP  RH WIND       PRES   REMARKS
TUCUMCARI      CLOUDY    33  32  96 NE8       30.07F FOG     WCI  26
CANNON AFB     CLOUDY    32  32 100 NE12      30.04F FOG     WCI  23
CLOVIS AIRPORT CLOUDY    34  30  86 NE8       30.06S VSB 3/4 WCI  27

$$
NMZ028-029-538-151400-
SOUTHEAST PLAINS

CITY           SKY/WX    TMP DP  RH WIND       PRES   REMARKS
ROSWELL        CLOUDY    39  36  89 N9        30.01F WCI  33
ARTESIA        CLOUDY    39  39 100 N8        30.01F FOG     WCI  34
CARLSBAD       CLOUDY    40  40 100 CALM      30.00S FOG


$$




USA.gov is the U.S. government's official web portal to all federal, state and local government web resources and services.